CW9414 Weather Reports


Display with metric or nautical units.
time (UTC)temp
F
wind
direction
speed
MPH
gust
MPH
rain 1hr
in
rain 24hr
in
rain mn
in
humidity
%
barometer
mb
20240224035424 62 317 0.0 0.0 0.00 0.00 0.00 42 1015.8
20240224034427 63 317 0.0 0.0 0.00 0.00 0.00 41 1015.5
20240224033424 63 317 0.0 0.0 0.00 0.00 0.00 41 1015.5
20240224032424 63 317 0.0 0.0 0.00 0.00 0.00 40 1015.4
20240224031427 64 317 0.0 0.0 0.00 0.00 0.00 40 1015.0
20240224030424 64 317 0.0 0.0 0.00 0.00 0.00 39 1015.0
20240224025424 64 317 0.0 1.0 0.00 0.00 0.00 39 1014.9
20240224024424 65 317 0.0 1.0 0.00 0.00 0.00 38 1014.9
20240224023427 66 317 0.0 1.0 0.00 0.00 0.00 37 1014.9
20240224022425 66 317 0.0 0.0 0.00 0.00 0.00 36 1014.8
20240224021424 67 317 0.0 1.0 0.00 0.00 0.00 36 1014.3
20240224020424 67 317 0.0 4.0 0.00 0.00 0.00 35 1014.3
20240224015428 67 317 0.0 3.0 0.00 0.00 0.00 34 1014.2
20240224014424 68 317 0.0 2.0 0.00 0.00 0.00 34 1014.1
20240224013425 68 317 1.0 1.0 0.00 0.00 0.00 33 1014.1
20240224012424 69 317 0.0 2.0 0.00 0.00 0.00 31 1013.9
20240224011424 70 317 0.0 1.0 0.00 0.00 0.00 31 1013.5
20240224010427 70 317 1.0 3.0 0.00 0.00 0.00 30 1013.5
20240224005425 71 317 0.0 3.0 0.00 0.00 0.00 29 1013.5
20240224004424 72 317 0.0 3.0 0.00 0.00 0.00 28 1013.4
20240224003424 72 317 0.0 4.0 0.00 0.00 0.00 28 1013.4
20240224002424 73 317 1.0 4.0 0.00 0.00 0.00 28 1013.2
20240224001424 74 317 2.0 5.0 0.00 0.00 0.00 27 1013.0
20240224000424 74 317 3.0 6.0 0.00 0.00 0.00 26 1013.0
20240223235424 75 311 1.0 7.0 0.00 0.00 0.00 25 1012.8
20240223234424 75 346 1.0 5.0 0.00 0.00 0.00 25 1012.6
20240223233424 76 290 2.0 6.0 0.00 0.00 0.00 24 1012.6
20240223232424 76 309 4.0 9.0 0.00 0.00 0.00 24 1012.4
20240223231425 77 294 2.0 7.0 0.00 0.00 0.00 23 1012.4
20240223230424 77 306 9.0 5.0 0.00 0.00 0.00 23 1012.4
20240223225424 77 333 2.0 6.0 0.00 0.00 0.00 23 1012.2
20240223224425 77 302 4.0 7.0 0.00 0.00 0.00 23 1011.9
20240223223423 78 349 2.0 7.0 0.00 0.00 0.00 23 1011.9
20240223222423 78 329 5.0 6.0 0.00 0.00 0.00 24 1012.0
20240223221423 78 350 9.0 9.0 0.00 0.00 0.00 23 1012.0
20240223220423 78 296 4.0 7.0 0.00 0.00 0.00 24 1012.0
20240223215423 78 291 8.0 10.0 0.00 0.00 0.00 24 1012.0
20240223214425 78 254 3.0 9.0 0.00 0.00 0.00 24 1012.1
20240223213424 78 313 3.0 9.0 0.00 0.00 0.00 23 1012.1
20240223212423 78 268 5.0 9.0 0.00 0.00 0.00 25 1011.9
20240223211424 78 303 4.0 6.0 0.00 0.00 0.00 24 1011.9
20240223210423 78 67 4.0 10.0 0.00 0.00 0.00 24 1011.9
20240223205423 78 286 5.0 11.0 0.00 0.00 0.00 24 1012.0
20240223204425 78 308 4.0 13.0 0.00 0.00 0.00 24 1012.3
20240223203424 78 10 4.0 9.0 0.00 0.00 0.00 26 1012.3
20240223202423 78 0 6.0 9.0 0.00 0.00 0.00 26 1012.3
20240223201425 78 12 3.0 5.0 0.00 0.00 0.00 26 1012.5
20240223200423 77 296 1.0 10.0 0.00 0.00 0.00 26 1012.4
20240223195425 77 19 4.0 7.0 0.00 0.00 0.00 27 1012.6
20240223194423 77 14 3.0 9.0 0.00 0.00 0.00 27 1012.9
20240223193424 77 5 4.0 17.0 0.00 0.00 0.00 27 1012.9
20240223192423 76 5 4.0 7.0 0.00 0.00 0.00 28 1013.1
20240223191426 76 30 2.0 9.0 0.00 0.00 0.00 27 1013.4
20240223190426 76 15 2.0 11.0 0.00 0.00 0.00 28 1013.4
20240223185425 76 53 1.0 10.0 0.00 0.00 0.00 28 1013.5
20240223184423 76 282 4.0 11.0 0.00 0.00 0.00 28 1013.9
20240223183423 76 5 2.0 7.0 0.00 0.00 0.00 30 1013.9
20240223182423 75 5 2.0 9.0 0.00 0.00 0.00 30 1014.0
20240223181423 75 15 2.0 7.0 0.00 0.00 0.00 31 1014.0
20240223180423 75 311 1.0 10.0 0.00 0.00 0.00 33 1014.0
20240223175423 74 63 3.0 8.0 0.00 0.00 0.00 34 1014.4
20240223174424 74 31 6.0 9.0 0.00 0.00 0.00 35 1014.5
20240223173428 73 5 2.0 10.0 0.00 0.00 0.00 36 1014.5
20240223172426 73 30 2.0 8.0 0.00 0.00 0.00 38 1014.5
20240223171424 72 34 5.0 11.0 0.00 0.00 0.00 39 1014.4
20240223170423 71 13 5.0 8.0 0.00 0.00 0.00 43 1014.4
20240223165424 71 48 2.0 11.0 0.00 0.00 0.00 44 1014.4
20240223164423 70 15 4.0 7.0 0.00 0.00 0.00 48 1014.3
20240223163423 69 15 3.0 9.0 0.00 0.00 0.00 48 1014.3
20240223162423 68 28 4.0 7.0 0.00 0.00 0.00 52 1014.1
20240223161423 67 30 2.0 9.0 0.00 0.00 0.00 53 1014.1
20240223160427 66 17 6.0 7.0 0.00 0.00 0.00 55 1014.1
20240223155424 65 308 3.0 6.0 0.00 0.00 0.00 57 1014.0
20240223154424 64 335 3.0 5.0 0.00 0.00 0.00 59 1013.9
20240223153424 63 355 2.0 7.0 0.00 0.00 0.00 61 1013.9
20240223152423 62 36 2.0 6.0 0.00 0.00 0.00 62 1013.9
20240223151424 61 350 3.0 4.0 0.00 0.00 0.00 65 1013.8
20240223150423 60 331 3.0 6.0 0.00 0.00 0.00 65 1013.8
20240223145423 60 293 2.0 4.0 0.00 0.00 0.00 66 1013.4
20240223144423 59 19 1.0 4.0 0.00 0.00 0.00 68 1013.3
20240223143424 58 301 1.0 3.0 0.00 0.00 0.00 71 1013.3
20240223142424 57 296 0.0 3.0 0.00 0.00 0.00 72 1013.0
20240223141423 56 287 0.0 3.0 0.00 0.00 0.00 73 1012.8
20240223140423 56 282 0.0 3.0 0.00 0.00 0.00 74 1012.8
20240223135426 55 283 0.0 2.0 0.00 0.00 0.00 74 1012.3
20240223134423 55 281 0.0 2.0 0.00 0.00 0.00 74 1012.1
20240223133423 54 281 0.0 2.0 0.00 0.00 0.00 74 1012.1
20240223132423 54 281 1.0 2.0 0.00 0.00 0.00 74 1012.0
20240223131424 54 281 0.0 1.0 0.00 0.00 0.00 73 1011.7
20240223130424 55 281 0.0 1.0 0.00 0.00 0.00 72 1011.7
20240223125423 55 281 0.0 0.0 0.00 0.00 0.00 72 1011.6
20240223124423 55 281 0.0 0.0 0.00 0.00 0.00 71 1011.2
20240223123424 56 281 0.0 0.0 0.00 0.00 0.00 70 1011.2
20240223122423 56 281 0.0 0.0 0.00 0.00 0.00 69 1011.1
20240223121423 56 281 0.0 3.0 0.00 0.00 0.00 69 1010.7
20240223120423 57 281 0.0 0.0 0.00 0.00 0.00 68 1010.7
20240223115423 57 281 0.0 0.0 0.00 0.00 0.00 67 1010.5
20240223114423 58 281 0.0 0.0 0.00 0.00 0.00 67 1010.2
20240223113423 58 281 0.0 0.0 0.00 0.00 0.00 66 1010.2
20240223112423 58 281 2.0 2.0 0.00 0.00 0.00 66 1010.1
20240223111423 58 281 0.0 2.0 0.00 0.00 0.00 65 1009.8
20240223110424 58 281 2.0 5.0 0.00 0.00 0.00 65 1009.8
20240223105423 58 281 0.0 3.0 0.00 0.00 0.00 65 1009.6
20240223104423 59 281 0.0 3.0 0.00 0.00 0.00 65 1009.3
20240223103424 59 281 0.0 3.0 0.00 0.00 0.00 65 1009.3
20240223102424 59 281 0.0 0.0 0.00 0.00 0.00 64 1009.2
20240223101424 59 281 2.0 3.0 0.00 0.00 0.00 64 1009.2
20240223100423 60 281 1.0 2.0 0.00 0.00 0.00 64 1009.2
20240223095424 60 280 0.0 4.0 0.00 0.00 0.00 64 1009.2
20240223094423 60 261 2.0 4.0 0.00 0.00 0.00 65 1009.1
20240223093423 60 261 0.0 3.0 0.00 0.00 0.00 65 1009.1
20240223092424 60 261 1.0 2.0 0.00 0.00 0.00 65 1009.1
20240223091423 60 260 0.0 3.0 0.00 0.00 0.00 65 1008.8
20240223090423 60 260 0.0 3.0 0.00 0.00 0.00 66 1008.8
20240223085423 60 244 0.0 0.0 0.00 0.00 0.00 67 1008.7
20240223084424 61 244 0.0 0.0 0.00 0.00 0.00 68 1008.8
20240223070444 63 244 0.0 2.0 0.00 0.00 0.00 74 1008.5
20240223065440 63 239 1.0 3.0 0.00 0.00 0.00 78 1008.5
20240223064440 63 239 0.0 4.0 0.00 0.00 0.00 82 1008.4
20240223063442 64 239 1.0 4.0 0.00 0.00 0.00 85 1008.4
20240223062444 64 239 1.0 4.0 0.00 0.00 0.00 87 1008.3
20240223061441 65 239 0.0 0.0 0.00 0.00 0.00 87 1008.1
20240223060441 65 239 1.0 3.0 0.00 0.00 0.00 88 1008.1
20240223055440 65 239 1.0 3.0 0.00 0.00 0.00 87 1008.1
20240223054444 65 238 1.0 4.0 0.00 0.00 0.00 87 1008.0
20240223053444 65 238 0.0 5.0 0.00 0.00 0.00 87 1008.0
20240223052440 66 191 3.0 4.0 0.00 0.00 0.00 86 1007.8
20240223051444 66 190 1.0 4.0 0.00 0.00 0.00 86 1007.6
20240223050440 66 188 0.0 1.0 0.00 0.00 0.00 85 1007.6
20240223045442 66 188 0.0 3.0 0.00 0.00 0.00 85 1007.6
20240223044440 66 188 0.0 0.0 0.00 0.00 0.00 84 1007.5
20240223043440 66 188 0.0 3.0 0.00 0.00 0.00 84 1007.5
20240223042442 66 188 0.0 1.0 0.00 0.00 0.00 83 1007.5
20240223041440 66 188 0.0 0.0 0.00 0.00 0.00 82 1007.3
20240223040442 66 188 0.0 0.0 0.00 0.00 0.00 82 1007.3